Lid_Strength_Index
1 0 -1 -2 -1 -1 -1 -1 -1 -2 -1 -1 -1 -2 -2 -2 -2 -2 -2 -2 -2 -2 -2 -2 -2 -2 -2 -2 -2 -2 -1 -1 -2 -2 -2 -2 -2 -2 -2 -2 -2 -1 -2
0 -0 -1 -1 -2 -1 -1 -1 -2 -2 -1 -1 -1 -2 -2 -2 -2 -2 -2 -2 -2 -2 -1 -1 -1 -1 -2 -2 -2 -2 -2 -2 -1 -1 -2 -2 -2 -2 -2 -2 -2 -1 -2
0 -0 -1 -1 -1 -1 -2 -1 -1 -1 -2 -1 -1 -2 -2 -2 -2 -2 -2 -2 -2 -2 -2 -2 -2 -2 -2 -2 -2 -2 -2 -2 -1 -1 -1 -0 -1 -2 -2 -2 -2 -2 -2
-0 -0 -0 -1 -1 -2 -2 -2 -2 -2 -2 -1 -2 -2 -2 -2 -2 -2 -2 -2 -2 -2 -3 -2 -2 -3 -2 -2 -2 -2 -2 -1 -1 -0 0 -0 -1 -2 -2 -2 -2 -2 -2
0 -0 -0 -1 -1 -2 -2 -2 -2 -2 -2 -1 -1 -2 -2 -2 -2 -2 -2 -2 -2 -2 -2 -2 -2 -2 -2 -2 -2 -2 -2 -1 -1 0 1 -1 -0 -2 -2 -2 -2 -2 -2
0 -0 -0 -1 -1 -1 -2 -2 -2 -2 -1 -1 -2 -2 -2 -2 -2 -2 -2 -2 -2 -2 -1 -1 -1 -2 -2 -2 -2 -2 -2 -1 0 2 1 -0 0 -2 -3 -2 -2 -2 -2
0 0 -0 -1 -1 -2 -2 -2 -2 -2 -1 -1 -2 -2 -2 -2 -2 -2 -2 -2 -2 -2 -1 -0 -1 -1 -1 -2 -2 -1 -0 0 3 3 2 1 -0 -2 -2 -2 -2 -2 -2
0 -0 -0 1 -0 -1 -1 -1 -2 -2 -2 -2 -2 -2 -1 -2 -2 -2 -2 -2 -2 -2 -1 0 0 0 0 0 0 1 2 2 4 4 3 2 -2 -2 -2 -2 -2 -2 -2
2 0 0 0 0 1 -0 -0 -1 -1 -2 -2 -2 -1 -1 -2 -2 -2 -2 -2 -2 -2 -1 -0 1 1 1 1 1 2 3 3 6 4 3 1 -2 -2 -3 -2 -2 -2 -2
8 6 4 1 1 1 1 2 1 -0 -1 -1 -1 -0 0 -0 -1 -1 -1 -2 -2 -2 -1 -1 0 1 1 1 2 3 4 5 7 6 4 1 -2 -2 -3 -2 -2 -2 -2
10 10 9 6 4 1 0 1 3 1 1 1 1 1 1 0 -0 0 0 -1 -2 -2 -1 -0 1 2 3 3 3 4 6 9 8 6 5 -1 -1 -2 -3 -2 -2 -2 -2
11 10 9 9 8 7 3 0 -0 0 1 0 0 1 0 0 -0 -0 1 -0 -1 -1 -2 -0 1 3 5 8 8 7 9 9 8 6 4 -1 -1 -1 -1 -1 -1 -2 -2
11 10 8 8 8 8 5 1 -0 -0 -0 0 0 0 0 0 -0 0 0 1 2 2 3 3 4 5 6 7 7 8 9 9 8 6 2 -0 -1 -1 -1 -1 -1 -1 -1
8 7 7 7 7 7 7 2 0 1 1 2 1 1 0 1 1 1 1 1 1 2 4 4 5 5 5 6 6 7 8 8 8 6 4 2 1 -0 -1 -1 -1 -1 -1
7 7 7 6 5 4 6 1 1 2 2 2 2 1 1 1 1 1 2 1 2 2 3 5 5 5 5 5 5 7 8 8 8 8 6 5 3 2 1 0 -0 -1 -1
7 7 6 5 4 3 2 3 3 3 3 3 4 3 2 1 2 2 3 3 3 3 3 3 5 4 4 4 5 6 7 8 9 9 9 9 6 5 4 2 1 0 -0
8 7 7 6 4 3 2 4 3 4 4 5 4 4 4 3 4 4 4 4 4 3 3 4 5 5 6 5 7 8 9 10 11 11 12 11 12 7 6 4 3 2 1
8 8 7 5 5 4 4 5 5 5 5 6 5 5 5 5 4 5 4 5 4 5 5 6 7 8 9 8 10 10 11 12 13 13 13 13 13 13 10 7 6 5 4
8 8 8 8 6 6 6 6 6 6 7 5 5 6 6 6 5 5 6 5 5 7 8 10 11 10 9 10 10 11 12 13 14 14 14 14 14 14 14 10 9 8 6
9 9 9 8 7 7 8 8 8 9 9 8 8 7 7 7 7 7 7 8 8 11 12 12 12 12 11 10 11 12 13 14 15 16 16 15 15 15 15 15 14 12 7
9 9 9 9 9 9 9 9 9 10 10 10 10 9 9 9 10 10 10 10 11 12 13 13 13 11 14 13 12 13 14 15 16 16 16 16 16 15 15 15 14 14 13
9 10 10 9 9 9 9 10 11 11 13 12 12 11 11 12 12 12 12 13 13 14 14 14 14 15 16 16 12 13 15 14 15 16 17 16 17 16 16 15 15 14 14
10 10 9 9 9 9 10 13 13 13 13 13 13 13 13 14 14 13 14 14 15 15 16 16 15 16 17 17 16 13 15 14 17 15 17 18 17 17 17 16 15 14 15
9 10 9 9 9 11 12 13 12 13 15 14 14 14 15 15 15 15 15 15 16 16 16 16 16 16 17 18 17 17 18 17 19 20 19 18 17 17 18 17 16 15 16
10 10 9 9 10 12 12 12 12 13 16 16 15 15 16 16 16 15 16 16 16 16 17 17 17 17 17 18 18 19 19 20 20 20 21 19 18 18 18 17 17 17 16
11 10 10 10 11 12 12 12 13 14 16 17 17 16 17 17 17 17 17 17 17 17 17 18 18 18 18 18 19 19 19 20 20 20 21 20 20 18 17 17 17 16 16